Regional Weather Roundup
Issued by NWS

Home | Current Version | Previous Version | Text Only | Print | Product List | Glossary Off
Versions: 1 2 3 4 5 6 7 8 9 10 11 12 13 14 15 16 17 18 19 20 21 22 23 24 25 26 27 28 29 30 31 32 33 34 35 36 37 38 39 40 41 42 43 44 45 46 47 48 49 50

430
ASUS45 KSLC 280410
RWRUT

UTAH REGIONAL WEATHER ROUNDUP
NATIONAL WEATHER SERVICE SALT LAKE CITY UT
1000 PM MDT MON MAR 27 2017

UTZ001>011-023>025-280500-

NORTHERN UTAH

CITY           SKY/WX    TMP DP  RH WIND       PRES   REMARKS
BRIGHAM CITY     N/A     45  35  69 NW12      30.00R
HILL AFB       CLOUDY    43  35  73 N14       29.98R
LOGAN          CLOUDY    43  39  86 CALM      30.00R
OGDEN          CLOUDY    43  37  79 NW10      29.98R
SALT LAKE CITY CLOUDY    43  39  86 N9        29.97R
TOOELE VALLEY  CLOUDY    45  37  76 N15       30.00R
WENDOVER       CLEAR     45  25  45 NW28G35   30.04R
HEBER CITY     MIX PCPN  37  36  93 CALM      29.93R
WEST JORDAN    CLOUDY    46  46 100 NW12      29.98R

$$

UTZ011>015-024>027-280500-

CENTRAL/NORTHEAST UTAH

CITY           SKY/WX    TMP DP  RH WIND       PRES   REMARKS
PROVO AIRPORT  CLOUDY    43  39  86 N9        29.96R
MOAB/CANYONLAN LGT RAIN  46  43  89 W18       29.81R
DELTA          CLOUDY    34  34 100 S5        29.98S WCI  30
PRICE          CLOUDY    36  35  96 CALM      29.85R
RICHFIELD      CLOUDY    39  39 100 CALM      29.97R
ROOSEVELT      CLOUDY    41  37  87 SW3       29.87S
VERNAL         CLOUDY    43  37  79 SW3       29.84R

$$

UTZ013>016-019>022-027-280500-

SOUTHERN UTAH

CITY           SKY/WX    TMP DP  RH WIND       PRES   REMARKS
BRYCE CANYON   CLOUDY    31  27  85 NW18G24   29.89R WCI  19
CEDAR CITY     LGT RAIN  33  32  96 N6        29.97R FOG     WCI  28
MILFORD        LGT RAIN  34  32  92 N6        29.99R WCI  29
ST GEORGE      CLOUDY    53  35  50 E8        29.92R
HANKSVILLE     CLOUDY    45  41  87 CALM      29.84S
KANAB          PTCLDY    43  32  65 S2        29.91R
BLANDING       CLOUDY    43  39  85 NW18      29.90R

$$

REGIONAL REPORTS     COLORADO/ARIZONA

CITY           SKY/WX    TMP DP  RH WIND       PRES   REMARKS
CRAIG, CO      CLOUDY    39  33  79 E6        29.85S WCI  35
GRAND JUNCTION LGT RAIN  45  41  86 NW15      29.85R
RIFLE, CO      CLOUDY    49  35  58 E10       29.80R
MONTROSE, CO   RAIN      43  38  82 S15G24    29.90R
CORTEZ, CO     LGT RAIN  42  39  89 NE7       29.86R
COLORADO CITY    N/A     45  34  65 NW12G20   29.93R
PAGE, AZ       CLOUDY    52  32  46 W8        29.82R
GRAND CANYON   PTCLDY    34  28  79 CALM      29.90R
KINGMAN, AZ    PTCLDY    51  25  36 N13       29.92R
FLAGSTAFF, AZ  MOCLDY    35  29  78 VRB6G18   29.91R WCI  30

$$

REGIONAL REPORTS    NEVADA/IDAHO/WYOMING

CITY           SKY/WX    TMP DP  RH WIND       PRES   REMARKS
LAS VEGAS, NV  PTCLDY    59  34  39 N12G22    29.94R
ELY, NY        CLOUDY    34  28  79 NW10      30.06R WCI  26
ELKO, NV       CLEAR     38  25  59 W6        30.14R WCI  33
POCATELLO, ID  LGT RAIN  42  32  67 SW17      30.04R
BURLEY, ID     LGT RAIN  40  28  62 W20G31    30.04R WCI  30
FORT BRIDGER,  SNOW      33  33 100 W8        29.98R VSB 1/4 WCI  27
EVANSTON, WY   SNOW      32  30  92 N17       29.96R VSB 1/4 WCI  21
ROCK SPRINGS,  LGT RAIN  37  33  85 N6        29.90R WCI  32
KEMMERER, WY     N/A     32  32 100 NW17G24   29.94S WCI  21

$$




USA.gov is the U.S. government's official web portal to all federal, state and local government web resources and services.